sat.trackr.live / text

‹ back to catalog

STARLINK-34446

NORAD 65495 · 2025-198D

PAYLOAD ACTIVE UNKNOWN

§ Identity

Operator
Country
US
Launch date
2025-09-05
Launch site
AFETR
Launch vehicle
Mass (kg)
RCS (m²)

Purposes: comms

External: N2YO · Heavens-Above · Gunter

§ Orbital elements

Epoch: 2026-05-25T01:56:56.554368Z

Period
94.11 min
Inclination
53.1591°
Eccentricity
0.0001008
Mean motion
15.30203822 rev/d
Perigee alt
474.5 km
Apogee alt
475.9 km
Semi-major
6,853.3 km
B*
4.7249e-4
RAAN
276.3343°
Arg perigee
86.1365°
Mean anomaly
273.9751°
Rev number
4,031

§ Raw data

STARLINK-344461 65495U 25198D   26145.08121012  .00013662  00000+0  47249-3 0  99932 65495  53.1591 276.3343 0001008  86.1365 273.9751 15.30203822 40319

JSON: /api/v1/satellites/65495 · /tle

For live sub-satellite position, see the globe view (requires WebGL).

§ Visibility from observer

Set your observer location to see the next 7 days of passes ≥ 10°. The values pass through the URL so the page stays shareable.

No JS? Fill the form by hand. The geolocation button needs JavaScript.